TimeEDT,TemperatureF,Dew PointF,Humidity,Sea Level PressureIn,VisibilityMPH,Wind Direction,Wind SpeedMPH,Gust SpeedMPH,PrecipitationIn,Events,Conditions,WindDirDegrees,DateUTC
12:52 AM,66.9,64.0,90,29.91,6.0,NW,9.2,-,0.14,Rain-Thunderstorm,Thunderstorms and Rain,310,2013-06-26 04:52:00
1:03 AM,66.2,64.4,94,29.91,6.0,NW,6.9,-,0.04,Rain,Rain,310,2013-06-26 05:03:00
1:52 AM,66.9,64.0,90,29.86,10.0,West,8.1,-,0.09,Rain,Light Rain,280,2013-06-26 05:52:00
2:52 AM,68.0,64.0,87,29.81,10.0,SW,9.2,-,0.01,,Partly Cloudy,230,2013-06-26 06:52:00
3:52 AM,66.9,63.0,87,29.81,10.0,South,3.5,-,N/A,,Clear,190,2013-06-26 07:52:00
4:52 AM,66.0,63.0,90,29.84,10.0,SE,3.5,-,N/A,,Clear,130,2013-06-26 08:52:00
5:52 AM,64.9,63.0,93,29.85,10.0,SSE,3.5,-,N/A,,Clear,160,2013-06-26 09:52:00
6:29 AM,66.2,64.4,94,29.86,10.0,South,3.5,-,N/A,,Scattered Clouds,170,2013-06-26 10:29:00
6:38 AM,66.2,64.4,94,29.85,10.0,Calm,Calm,-,N/A,,Mostly Cloudy,0,2013-06-26 10:38:00
6:52 AM,66.9,64.0,90,29.85,10.0,Calm,Calm,-,N/A,,Overcast,0,2013-06-26 10:52:00
7:48 AM,68.0,66.2,94,29.88,7.0,South,6.9,-,N/A,,Scattered Clouds,180,2013-06-26 11:48:00
7:52 AM,68.0,66.0,93,29.86,8.0,South,4.6,-,N/A,,Partly Cloudy,180,2013-06-26 11:52:00
8:52 AM,71.1,66.9,87,29.87,10.0,SW,6.9,-,N/A,,Scattered Clouds,230,2013-06-26 12:52:00
9:28 AM,71.6,66.2,83,29.88,10.0,SW,11.5,-,N/A,,Mostly Cloudy,230,2013-06-26 13:28:00
9:52 AM,73.0,66.9,81,29.86,10.0,West,9.2,-,N/A,,Mostly Cloudy,260,2013-06-26 13:52:00
10:13 AM,73.4,66.2,78,29.87,10.0,West,9.2,-,N/A,,Scattered Clouds,260,2013-06-26 14:13:00
10:52 AM,75.9,66.9,74,29.87,10.0,West,16.1,-,N/A,,Mostly Cloudy,260,2013-06-26 14:52:00
11:31 AM,75.2,66.2,73,29.89,10.0,West,10.4,-,N/A,,Mostly Cloudy,270,2013-06-26 15:31:00
11:52 AM,75.9,66.9,74,29.89,10.0,West,10.4,20.7,N/A,,Overcast,280,2013-06-26 15:52:00
12:08 PM,75.2,66.2,73,29.90,10.0,West,12.7,-,N/A,,Overcast,260,2013-06-26 16:08:00
12:52 PM,75.9,66.0,71,29.86,10.0,WNW,9.2,-,N/A,,Scattered Clouds,300,2013-06-26 16:52:00
1:52 PM,77.0,66.0,69,29.82,10.0,Variable,4.6,-,N/A,,Scattered Clouds,0,2013-06-26 17:52:00
2:52 PM,80.1,66.0,62,29.83,10.0,SW,10.4,-,N/A,,Mostly Cloudy,220,2013-06-26 18:52:00
3:52 PM,81.0,66.0,60,29.81,10.0,SSW,5.8,-,N/A,,Clear,210,2013-06-26 19:52:00
4:52 PM,82.0,66.9,60,29.79,10.0,ESE,3.5,-,N/A,,Clear,120,2013-06-26 20:52:00
5:52 PM,82.9,68.0,60,29.76,10.0,ESE,4.6,-,N/A,,Clear,110,2013-06-26 21:52:00
6:52 PM,82.9,69.1,63,29.74,10.0,ESE,8.1,-,N/A,,Clear,110,2013-06-26 22:52:00
7:19 PM,75.2,66.2,73,29.77,10.0,South,11.5,26.5,N/A,Thunderstorm,Mostly Cloudy,170,2013-06-26 23:19:00
7:28 PM,73.4,66.2,78,29.78,2.0,South,9.2,17.3,0.00,Rain,Heavy Rain,180,2013-06-26 23:28:00
7:30 PM,73.4,66.2,78,29.78,1.2,South,8.1,17.3,0.05,Rain,Heavy Rain,170,2013-06-26 23:30:00
7:37 PM,71.6,66.2,83,29.78,1.5,SSW,8.1,-,0.12,Rain-Thunderstorm,Thunderstorms and Rain,200,2013-06-26 23:37:00
7:40 PM,71.6,66.2,83,29.78,3.0,SSW,6.9,-,0.13,Rain-Thunderstorm,Thunderstorms and Rain,210,2013-06-26 23:40:00
7:52 PM,72.0,68.0,87,29.78,6.0,West,9.2,-,0.14,Rain-Thunderstorm,Light Thunderstorms and Rain,260,2013-06-26 23:52:00
8:11 PM,71.6,68.0,88,29.79,10.0,Calm,Calm,-,0.01,Rain,Light Rain,0,2013-06-27 00:11:00
8:52 PM,72.0,69.1,91,29.78,10.0,NW,4.6,-,0.01,,Overcast,320,2013-06-27 00:52:00
9:52 PM,71.1,69.1,93,29.77,9.0,Calm,Calm,-,0.11,Rain,Light Rain,0,2013-06-27 01:52:00
10:52 PM,70.0,68.0,93,29.75,8.0,East,4.6,-,0.00,,Clear,100,2013-06-27 02:52:00
11:52 PM,70.0,69.1,97,29.75,5.0,Calm,Calm,-,N/A,,Clear,0,2013-06-27 03:52:00